Location: Newark
(41.6500°N, 71.4833°W)
Time: 01:12:34
(UTC+00:00)

Tiros 1 - Pass Details

Date: 26 January 2020
Orbit: 631 x 664 km, 48.4° (Epoch: 27 February)

Event Time Altitude Azimuth Distance (km) Brightness Sun altitude
Rises 00:19:43 0° 289° (WNW) 2,982 11.6 -27.5°
Reaches altitude 10° 00:22:32 10° 274° (W) 2,072 10.7 -28.0°
Maximum altitude 00:26:05 21° 226° (SW) 1,481 9.4 -28.7°
Enters shadow 00:28:02 16° 194° (SSW) 1,683 9.4 -29.0°
